CDT,Max TemperatureF,Mean TemperatureF,Min TemperatureF,Max Dew PointF,MeanDew PointF,Min DewpointF,Max Humidity, Mean Humidity, Min Humidity, Max Sea Level PressureIn, Mean Sea Level PressureIn, Min Sea Level PressureIn, Max VisibilityMiles, Mean VisibilityMiles, Min VisibilityMiles, Max Wind SpeedMPH, Mean Wind SpeedMPH, Max Gust SpeedMPH,PrecipitationIn, CloudCover, Events, WindDirDegrees
2014-3-1,21,12,3,12,5,-5,85,75,61,30.52,30.27,30.10,10,4,1,23,17,29,T,8,Snow,43
2014-3-2,8,5,1,-3,-5,-8,70,65,58,30.66,30.57,30.41,10,10,8,17,13,20,0.00,7,,35
2014-3-3,27,14,0,14,4,-5,79,66,49,30.62,30.37,30.12,10,10,10,20,7,31,0.00,0,,188
2014-3-4,62,39,15,35,25,12,88,67,34,30.09,29.96,29.83,10,10,8,12,5,,0.00,0,,170
2014-3-5,41,33,24,27,21,19,85,75,51,30.30,30.21,30.01,10,7,1,21,12,28,0.03,4,Rain-Snow,25
2014-3-6,66,44,22,39,30,20,96,76,33,30.26,30.01,29.75,10,6,1,18,8,30,0.00,3,,192
2014-3-7,48,37,26,34,27,19,82,65,49,30.25,29.93,29.70,10,10,2,28,15,36,T,5,Snow,17
2014-3-8,50,37,24,26,21,16,88,70,38,30.42,30.31,30.21,10,8,1,18,10,,0.02,3,Snow,345
2014-3-9,76,53,30,30,26,20,89,46,13,30.31,30.07,29.89,10,10,10,21,10,31,0.00,0,,242
2014-3-10,79,61,42,26,23,18,47,29,10,29.91,29.79,29.56,10,10,10,15,7,20,0.00,0,,260
2014-3-11,59,47,34,37,29,19,87,59,22,30.25,29.76,29.37,10,10,4,40,16,51,0.07,4,Rain-Snow,335
2014-3-12,57,43,29,31,23,16,82,55,20,30.35,30.26,30.18,10,10,10,21,12,36,0.00,0,,303
2014-3-13,71,48,26,23,15,1,71,37,6,30.18,29.96,29.71,10,10,10,18,9,30,0.00,0,,241
2014-3-14,65,51,37,27,22,16,57,34,18,30.06,29.93,29.71,10,10,10,21,12,18,0.00,0,,298
2014-3-15,71,52,32,26,23,20,61,38,16,30.23,29.91,29.77,10,10,10,32,12,43,0.00,0,,296
2014-3-16,48,39,29,25,21,18,75,57,33,30.41,30.26,30.07,10,10,10,26,16,33,0.00,4,,19
2014-3-17,75,54,32,27,22,19,59,36,12,30.04,29.59,29.26,10,10,10,22,10,32,0.00,0,,201
2014-3-18,50,41,32,33,30,25,92,77,41,30.01,29.66,29.24,10,6,1,29,16,40,0.05,5,Snow,338
2014-3-19,58,43,27,32,24,17,88,58,21,30.24,30.14,30.04,10,10,10,20,12,29,0.00,0,,296
2014-3-20,71,49,26,25,16,9,69,36,10,30.09,29.93,29.77,10,10,10,16,7,26,0.00,0,,298
2014-3-21,60,47,34,27,22,16,64,41,21,30.30,29.98,29.72,10,10,10,25,13,33,0.00,0,,3
2014-3-22,37,25,13,25,19,10,89,72,35,30.60,30.40,30.26,10,8,1,23,13,32,T,6,Snow,37
2014-3-23,45,26,7,21,15,5,88,67,34,30.62,30.44,30.19,10,10,10,18,6,26,0.00,3,,195
2014-3-24,48,37,25,23,19,16,75,54,32,30.33,30.26,30.14,10,10,10,22,11,31,0.00,3,,20
2014-3-25,49,38,27,23,18,8,78,50,30,30.49,30.30,30.04,10,10,10,14,7,20,0.00,4,,88
2014-3-26,65,50,34,44,33,22,80,53,32,30.02,29.64,29.38,10,10,8,31,17,43,0.00,4,,178
2014-3-27,55,40,25,47,36,25,86,67,38,29.94,29.52,29.24,10,10,6,30,15,38,0.00,3,,327
2014-3-28,66,45,24,38,27,17,96,69,16,30.27,30.06,29.95,10,7,1,23,7,29,0.02,4,Snow,286
2014-3-29,71,44,17,29,22,15,89,51,14,30.35,30.18,29.96,10,9,7,21,9,33,0.00,0,,210
2014-3-30,76,63,49,35,29,24,38,28,19,29.94,29.69,29.43,10,10,10,28,16,37,0.00,0,,193
2014-3-31,65,48,31,36,27,16,66,37,24,30.10,29.70,29.38,10,8,2,39,23,55,0.00,4,,295